Showing default

INTELSAT 39, 44476

Orbit data source: Space-Track

INTELSAT 39, 44476 is a payload satellite owned by Intelsat SA (US) (US) in GEO that was launched on Tue, 06 Aug 2019 UTC via an ARIANE 5ECA+ launch vehicle from the French Guiana (FRGUI). Payload-class satellites include a variety of spacecraft equipped with specific instruments for various scientific and technological missions. These include communications satellites like Starlink; space stations such as the ISS; scientific satellites like the Hubble; Earth observation satellites from companies like Planet Labs, Umbra, and HawkEye 360; GPS; miniature CubeSats for education and research; and military/defense satellites.

Not visible in the next 10 days
Identifier
44476, 2019-049B
Orbit
GEO
Country
Flag of UnknownUnknown / ITSO
Related business
Manufacturer
Maxar Space Sol
Mission
Operational Commercial Communications
Bus & Motor
LS-1300, R-4D
Mass
6,600 kg wet, ~3,000 kg dry
Launch date (UTC)
2019-08-06 (7 years ago)
Launch vehicle
ARIANE 5ECA+
Launch site
French Guiana (FRGUI)
Object type
Payload
Rocket body
Debris
Shape & HBR
Box + 2 Pan, 13.1 m
Radar Cross Section
98.259 m², Large (>1 m²)

Expand to show TLE details & history
Last TLE update: 11 hours ago

TLE from 11 hours ago
0 INTELSAT 39
1 44476U 19049B   26039.92030306  .00000041  00000-0  00000-0 0  9996
2 44476   0.0154 106.0613 0001046  37.9268  28.2583  1.00270897 23849
Epoch: 2026-02-08T22:05Z
TLE epoch observation values (Epoch: 2026-02-08T22:05:14.184Z)
Latitude
0.03062°
Longitude
61.94721°
Altitude
35,782.434 km
Speed
3.075 km/s
True Right ascension
11h 29m 06s
True Declination
0° 01' 50"
Sunlit
Object was in daylight at epoch
Visualization orbit readout
Latitude
Unknown
Longitude
Unknown
Altitude
Unknown
Speed
Unknown
Apparent Right ascension
Unknown
Apparent Declination
Unknown
Sunlit
N/A
Visualization observer readout
Local Sidereal Time
11:35:30
Azimuth
Unknown
Elevation
Unknown
Doppler factor
Unknown
Orbital elements
Apogee altitude
35,792.325 km
Perigee altitude
35,783.504 km
Semi-major axis
42,166.051 km
Eccentricity
0.0001
Inclination
0.0154°
RAAN
106.0613°
Arg. of periapsis
37.9268°
True anomaly
28.26398°
Mean anomaly
28.2583°
Eccentric anomaly
28.26114°
Mean motion
0.25067 °/min
Orbital period
1,436.16 mins
BSTAR
0
Loading maneuver chart data...
Computing Atmospheric mass density...
Loading historical data...
Loading historical data...
Loading historical data...
Loading historical data...
Loading historical data...
Loading historical data...
Loading historical data...
Other satellites on launch #49 in the year 2019 (2019-08-06 UTC)

Documentation

Showing up to 5 results
|